CW9742 Weather Reports


time (UTC)temp
C
wind
direction
speed
KPH
gust
KPH
rain 1hr
cm
rain 24hr
cm
rain mn
cm
humidity
%
barometer
mb
20260502194528 8 317 8.0 19.3 0.00 0.00 0.00 45 1016.9
20260502193023 8 17 0.0 8.0 0.00 0.00 0.00 48 1017.0
20260502191521 8 338 8.0 17.7 0.00 0.00 0.00 48 1017.2
20260502190020 8 273 6.4 14.5 0.00 0.00 0.00 47 1017.4
20260502184522 8 276 9.7 20.9 0.00 0.00 0.00 45 1017.5
20260502183016 7 341 6.4 12.9 0.00 0.00 0.00 51 1017.5
20260502181515 7 290 6.4 12.9 0.00 0.00 0.00 48 1017.7
20260502163012 6 326 4.8 16.1 0.00 0.00 0.00 53 1018.4
20260502161508 6 355 4.8 14.5 0.00 0.00 0.00 51 1018.5
20260502151507 5 325 3.2 12.9 0.00 0.00 0.00 53 1018.4
20260502123055 2 335 3.2 9.7 0.00 0.00 0.00 77 1018.9
20260502121537 2 337 0.0 0.0 0.00 0.00 0.00 79 1019.0
20260502114536 1 336 0.0 0.0 0.00 0.00 0.00 84 1019.0
20260502113035 0 336 0.0 0.0 0.00 0.00 0.00 85 1018.9
20260502111531 0 336 0.0 0.0 0.00 0.00 0.00 85 1018.7
20260502110030 0 336 0.0 0.0 0.00 0.00 0.00 84 1018.6
20260502104535 0 336 0.0 0.0 0.00 0.00 0.00 83 1018.5
20260502103026 0 336 0.0 0.0 0.00 0.00 0.00 83 1018.4
20260502101525 0 336 0.0 0.0 0.00 0.00 0.00 82 1018.3
20260502091515 1 336 0.0 0.0 0.00 0.00 0.00 78 1017.9
20260502071501 3 336 0.0 0.0 0.00 0.00 0.00 70 1017.5
20260502064601 3 336 0.0 0.0 0.00 0.00 0.00 68 1017.6
20260502063057 3 336 0.0 0.0 0.00 0.00 0.00 67 1017.7
20260502061555 3 5 0.0 0.0 0.00 0.00 0.00 66 1017.8
20260502060057 3 5 0.0 0.0 0.00 0.00 0.00 65 1017.7
20260502054558 3 5 0.0 0.0 0.00 0.00 0.00 65 1017.8
20260502053109 3 9 0.0 0.0 0.00 0.00 0.00 65 1017.7
20260502051551 3 24 0.0 0.0 0.00 0.00 0.00 64 1017.7
20260502050053 3 24 0.0 0.0 0.00 0.00 0.00 63 1017.7
20260502044545 4 19 0.0 0.0 0.00 0.00 0.00 63 1017.5
20260502043044 4 21 0.0 0.0 0.00 0.00 0.00 62 1017.5
20260502041544 4 28 0.0 0.0 0.00 0.00 0.00 62 1017.4
20260502040045 4 28 0.0 0.0 0.00 0.00 0.00 62 1017.3
20260502034540 4 28 0.0 0.0 0.00 0.00 0.00 62 1017.1
20260502033039 4 29 0.0 6.4 0.00 0.00 0.00 61 1017.1
20260502031539 4 38 3.2 12.9 0.00 0.00 0.00 60 1017.0
20260502030051 5 16 3.2 12.9 0.00 0.00 0.00 60 1017.0
20260502024543 5 5 3.2 11.3 0.00 0.00 0.00 59 1017.0
20260502023047 5 345 3.2 8.0 0.00 0.00 0.00 61 1016.8
20260502021540 5 40 4.8 14.5 0.00 0.00 0.00 60 1016.8
20260502020032 5 11 6.4 12.9 0.00 0.00 0.00 61 1016.7
20260502014538 5 27 3.2 9.7 0.00 0.00 0.00 60 1016.4
20260502013028 5 360 4.8 9.7 0.00 0.00 0.00 58 1016.3
20260502011527 5 326 3.2 12.9 0.00 0.00 0.00 61 1016.1
20260502010028 5 290 1.6 8.0 0.00 0.00 0.00 64 1015.9
20260502004524 5 289 3.2 8.0 0.00 0.00 0.00 64 1015.8
20260502003027 6 272 3.2 11.3 0.00 0.00 0.00 64 1015.8
20260502001523 6 288 3.2 11.3 0.00 0.00 0.00 64 1015.7
20260502000022 6 333 3.2 6.4 0.00 0.00 0.00 63 1015.6
20260501234522 6 297 3.2 8.0 0.00 0.00 0.00 64 1015.5
20260501233021 6 317 6.4 9.7 0.00 0.00 0.00 64 1015.6
20260501231522 6 325 3.2 9.7 0.00 0.00 0.00 63 1015.5
20260501230019 6 320 4.8 9.7 0.00 0.00 0.00 61 1015.4
20260501224517 6 294 4.8 9.7 0.00 0.00 0.00 61 1015.4
20260501223020 6 313 4.8 9.7 0.00 0.00 0.00 62 1015.3
20260501221516 6 290 3.2 8.0 0.00 0.00 0.00 63 1015.2
20260501220020 6 5 6.4 9.7 0.00 0.00 0.00 63 1015.2
20260501214515 6 332 3.2 9.7 0.00 0.00 0.00 64 1015.1
20260501213013 7 318 4.8 14.5 0.00 0.00 0.00 63 1015.1
20260501211513 6 360 4.8 12.9 0.00 0.00 0.00 62 1015.0
20260501210012 6 333 4.8 14.5 0.00 0.00 0.00 62 1015.0
20260501204510 7 346 4.8 9.7 0.00 0.00 0.00 58 1014.9
20260501203028 7 281 6.4 12.9 0.00 0.00 0.00 57 1014.7
20260501201509 7 323 6.4 12.9 0.00 0.00 0.00 58 1014.8
20260501200011 7 284 6.4 12.9 0.00 0.00 0.00 58 1014.7